Regional Weather Roundup
Issued by NWS

Home | Current Version | Previous Version | Graphics & Text | Print | Product List | Glossary On
Versions: 1 2 3 4 5 6 7 8 9 10 11 12 13 14 15 16 17 18 19 20 21 22 23 24 25 26 27 28 29 30 31 32 33 34 35 36 37 38 39 40 41 42 43 44 45 46 47 48 49 50
000
ASUS43 KMPX 201810
RWRMN
WEATHER ROUNDUP FOR MINNESOTA
NATIONAL WEATHER SERVICE TWIN CITIES/CHANHASSEN MN
1200 PM CST THU NOV 20 2014


NOTE: "FAIR" INDICATES FEW OR NO CLOUDS BELOW 12,000 FEET WITH NO
SIGNIFICANT WEATHER AND/OR OBSTRUCTIONS TO VISIBILITY. N/A MEANS
CURRENT SKY AND/OR WEATHER CONDITIONS ARE NOT AVAILABLE.

MNZ060>063-068>070-201900-
   Twin Cities Metro

CITY           SKY/WX    TMP DP  RH WIND       PRES   REMARKS
TWIN CITIES    SUNNY     16   2  54 W17       30.13F WCI   0
6HR MIN TEMP:   9; 6HR MAX TEMP:  16;

ST PAUL        SUNNY     16   1  51 NW16      30.15S WCI   1
CRYSTAL        SUNNY     16   1  51 NW14      30.12F WCI   2
BLAINE         SUNNY     18   3  53 W14       30.11S WCI   4
LAKEVILLE      SUNNY     14   3  62 W13G20    30.13S WCI   0
EDEN PRAIRIE   SUNNY     16   3  56 W12       30.14S WCI   3
6HR MIN TEMP:   4; 6HR MAX TEMP:  16;

SOUTH ST PAUL  SUNNY     18   1  48 W15G21    30.13S WCI   3
LAKE ELMO      FAIR      18   1  49 W13G18    30.12F WCI   4
$$
MNZ001>005-007-008-013>017-022>024-027-028-201900-
   Northwest Minnesota

CITY           SKY/WX    TMP DP  RH WIND       PRES   REMARKS
BEMIDJI        SUNNY      7  -1  69 W14       30.07S WCI -10
HALLOCK        SUNNY      9   0  66 N3        30.13F
ROSEAU         SUNNY      7   0  72 NW9       30.09S WCI  -7
WARROAD        MOSUNNY    7   0  72 NW6       30.08S WCI  -3
THIEF RVR FALL SUNNY      7   1  78 NW6       30.12S WCI  -3
CROOKSTON      SUNNY     10   1  67 N5        30.17R WCI   2
FOSSTON        SUNNY     10  -2  56 NW8       30.12S WCI  -1
DETROIT LAKES  SUNNY     10   3  72 NW8       30.12S WCI  -1
MOORHEAD       SUNNY     18   5  57 N6        30.16F WCI   9
PARK RAPIDS    SUNNY     10   0  63 NW14      30.07S WCI  -6
MAHNOMEN       FAIR       7  -1  70 NW5       30.12F WCI  -2
$$
MNZ006-009>011-018-025>026-201900-
   North Central Minnesota

CITY           SKY/WX    TMP DP  RH WIND       PRES   REMARKS
BAUDETTE       PTSUNNY    6  -2  69 NW10      30.05R WCI  -9
FLAG ISLAND    PTSUNNY    5  -2  72 NW10      30.05F WCI -10
INTL FALLS     SUNNY      9  -3  58 W8        30.02R WCI  -3
6HR MIN TEMP:   0; 6HR MAX TEMP:   9;

WASKISH        MOSUNNY    9   1  72 W7        30.06F WCI  -3
BIG FORK       SUNNY     10  -2  56 W9        30.03R WCI  -2
LONGVILLE      SUNNY     10   0  61 W9G21     30.06S WCI  -2
GRAND RAPIDS   SUNNY      9  -2  61 NW16      30.01S WCI  -9
CRANE LAKE     CLOUDY     7   0  72 W5        30.01S WCI  -2
ORR            SUNNY      9  -2  61 W9        29.96S WCI  -5
COOK           MOSUNNY    7  -2  66 NW9       29.99R WCI  -7
WALKER         FAIR       8  -2  62 W9        30.07S WCI  -5
$$
MNZ012-019>021-037-201900-
   Northeast Minnesota

CITY           SKY/WX    TMP DP  RH WIND       PRES   REMARKS
DULUTH         MOSUNNY    9  -2  61 NW17      29.97R WCI  -9
6HR MIN TEMP:   3; 6HR MAX TEMP:   9; 6HR PCP: TRACE;

ELY            SUNNY      5  -4  66 NW10G21   29.94S WCI -10
HIBBING        MOSUNNY    9  -2  61 NW17      30.00R WCI  -9
EVELETH        SUNNY      9   0  66 NW14G20   29.98S WCI  -8
DULUTH HARBOR  MOSUNNY   12   1  62 W13       30.05S WCI  -3
TWO HARBORS    MOSUNNY   12   1  62 NW5G16    29.96R WCI   4
SILVER BAY     SUNNY     12   0  57 W6        29.94R HAZE    WCI   3
GRAND MARAIS     N/A     11  -5  48 VRB6      29.98R WCI   1
G MARAIS ARPRT SUNNY      1 -11  55 NW12G23   29.83S WCI -15
$$
MNZ029>031-032-039>041-046>048-054>057-064-201900-
   West Central Minnesota

CITY           SKY/WX    TMP DP  RH WIND       PRES   REMARKS
FERGUS FALLS   SUNNY     10   1  67 NW7       30.19S WCI   0
WHEATON        SUNNY     12   5  73 W6        30.20S WCI   3
MORRIS         SUNNY     12   5  73 NW7       30.16R WCI   2
ALEXANDRIA     SUNNY     12   2  64 NW13      30.12S WCI  -3
ELBOW LAKE       N/A     10   4  76 NW8       30.15S WCI  -2
WADENA         SUNNY     10   1  67 NW15      30.10S WCI  -6
GLENWOOD       SUNNY     12   3  67 W10       30.13S WCI  -1
APPLETON       SUNNY     16   7  67 NW7       30.19S WCI   6
BENSON         SUNNY     10   5  79 NW8       30.17S WCI  -1
ORTONVILLE     SUNNY     14   3  62 NW6       30.18R WCI   5
MADISON        SUNNY     16   9  73 NW10      30.19S WCI   3
WILLMAR        PTSUNNY   10   3  72 W10       30.17S WCI  -3
$$
MNZ033>034-036-042>043-049>051-058-059-201900-
   Central Minnesota

CITY           SKY/WX    TMP DP  RH WIND       PRES   REMARKS
ST CLOUD       SUNNY     15   1  53 NW14      30.12S WCI   0
6HR MIN TEMP:   4; 6HR MAX TEMP:  15;

SAUK CENTRE    FAIR      13   3  63 W9        30.13S WCI   1
PAYNESVILLE    SUNNY     12   2  65 W10       30.14S WCI  -2
AITKIN         SUNNY     16  -2  45 NW8       30.04S WCI   5
PINE RIVER     SUNNY     10   0  61 NW9       30.10S WCI  -2
BRAINERD       SUNNY     11  -1  58 NW15      30.08S WCI  -5
STAPLES        SUNNY     10   0  61 NW12      30.09S WCI  -4
LONG PRAIRIE   FAIR      14   1  57 W10       30.11S WCI   1
LITTLE FALLS   SUNNY     14   0  52 W10       30.11S WCI   1
LITCHFIELD     SUNNY     14   7  73 W9        30.15S WCI   2
BUFFALO        SUNNY     15   3  57 W13       30.15S WCI   1
MAPLE LAKE     SUNNY     15   5  62 W10       30.14S WCI   3
$$
MNZ037-044-045-052-053-201900-
   East Central Minnesota

CITY           SKY/WX    TMP DP  RH WIND       PRES   REMARKS
PRINCETON      SUNNY     14   1  57 W12       30.11S WCI   0
MORA             N/A    N/A N/A N/A MISG        N/A
CAMBRIDGE      SUNNY     14   1  57 W14       30.09S WCI  -1
RUSH CITY      SUNNY     15  -1  48 W9        30.09S WCI   3
MOOSE LAKE     SUNNY     14  -2  48 NW9G17    30.03R WCI   2
HINCKLEY       FAIR      14   0  52 W7        30.07S WCI   4
CLOQUET        SUNNY     10  -2  56 W8        30.00R WCI  -1
MCGREGOR       SUNNY     14   1  57 W12G17    30.05R WCI   0
$$
MNZ071>073-080-081-089-090-097-098-201900-
   Southwest Minnesota

CITY           SKY/WX    TMP DP  RH WIND       PRES   REMARKS
MONTEVIDEO     SUNNY     18   7  62 N7        30.19S WCI   8
GRANITE FALLS  SUNNY     13   7  74 W9        30.20F WCI   1
CANBY          SUNNY     16   8  70 NW9       30.19S WCI   4
MARSHALL       SUNNY     16   5  62 NW9       30.17S WCI   4
REDWOOD FALLS  SUNNY     16   6  65 NW13      30.18S WCI   2
OLIVIA         SUNNY     16   9  73 NW9       30.17S WCI   4
PIPESTONE      SUNNY     12   9  85 W6        30.14F WCI   3
WINDOM         SUNNY     18   9  68 W10       30.16S WCI   6
WORTHINGTON    SUNNY     16   7  67 W10       30.16S WCI   3
JACKSON        SUNNY     18   9  68 W7        30.16S WCI   8
TRACY          SUNNY     18   9  69 NW7       30.17F WCI   8
SLAYTON        SUNNY     15   7  71 CALM      30.15F
$$
MNZ065>067-074>077-082>085-091>093-201900-
   South Central Minnesota

CITY           SKY/WX    TMP DP  RH WIND       PRES   REMARKS
MANKATO        SUNNY     16   3  57 NW14      30.16S WCI   1
NEW ULM        SUNNY     16   9  73 W8        30.17F WCI   5
ST JAMES       SUNNY     18  10  73 W10       30.19S WCI   6
FAIRMONT       SUNNY     18   7  62 W10       30.17S WCI   6
GLENCOE        SUNNY     15   7  69 W12       30.15S WCI   2
FARIBAULT      SUNNY     18   5  57 NW12      30.14S WCI   5
OWATONNA       SUNNY     16   3  57 W12       30.13F WCI   3
WASECA         SUNNY     18   5  57 W12       30.17S WCI   5
ALBERT LEA     SUNNY     16   9  73 W7        30.14S WCI   6
$$
MNZ078>079-086>088-094>096-201900-
   Southeast Minnesota

CITY           SKY/WX    TMP DP  RH WIND       PRES   REMARKS
ROCHESTER      SUNNY     15   3  59 NW22      30.10S WCI  -3
6HR MIN TEMP:   6; 6HR MAX TEMP:  15;

RED WING       SUNNY     19  -4  35 W16G23    30.11S WCI   5
STANTON        SUNNY     18   4  55 NW16      30.13S WCI   3
DODGE CENTER   SUNNY     16   5  62 NW15      30.10S WCI   1
WINONA         SUNNY     19   3  49 NW14G22   30.12F WCI   6
AUSTIN         SUNNY     16   3  57 NW13G20   30.12F WCI   2
PRESTON        SUNNY     16   2  54 NW16      30.10F WCI   0
$$
ABBREVIATIONS USED IN REMARKS
   TC - TEMPERATURES IN CELSIUS
  WCI - WIND CHILL INDEX
   HX - HEAT INDEX
  VSB - VISIBILITY
$$


USA.gov is the U.S. government's official web portal to all federal, state and local government web resources and services.